Patrick Air Force Base, FL

5:00 PM EDT on July 26, 2016 (GMT -0400)
Patrick Air Force Base

Weather History for KCOF - January, 2014

Change the Weather History Date:

Friday, January 10, 2014

  Actual Average Record
Temperature  
Mean Temperature 70 °F -  
Max Temperature 73 °F 68 °F 80 °F (2000)
Min Temperature 68 °F 54 °F 37 °F (2001)
Cooling Degree Days 6    
Growing Degree Days 20 (Base 50)    
Moisture  
Dew Point 69 °F    
Average Humidity 98    
Maximum Humidity 100    
Minimum Humidity 86    
Precipitation  
Precipitation 17.43 in - - ()
Sea Level Pressure  
Sea Level Pressure 30.15 in    
Wind  
Wind Speed 10 mph (SE)    
Max Wind Speed 16 mph    
Max Gust Speed -    
Visibility 7 miles    
Events Rain    
Averages and records for this station are not official NWS values.
T = Trace of Precipitation, MM = Missing Value Source: NWS Daily Summary

Daily Weather History Graph

Daily Weather History Graph

Search for Another Location

Airport or City:

Trip Planner

Search our weather history database for the weather conditions in past years. The results will help you decide how hot, cold, wet, or windy it might be!

Date:

Astronomy

Jan. 10, 2014 Rise Set
Actual Time 7:15 AM EST 5:44 PM EST
Civil Twilight 6:50 AM EST 6:10 PM EST
Nautical Twilight 6:21 AM EST 6:39 PM EST
Astronomical Twilight 5:52 AM EST 7:07 PM EST
Moon 1:41 PM EST (1/10) 2:29 AM EST (1/10)
Length of Visible Light 11h 19m
Length of Day
10h 28m
Waxing Gibbous, 75% of the Moon is Illuminated
Jan 10
Waxing Gibbous
Jan 15
Full
Jan 24
Last Quarter
Jan 30
New
Feb 6
First Quarter

Hourly Weather History & Observations

Time (EST) Temp. Dew Point Humidity Pressure Visibility Wind Dir Wind Speed Gust Speed Precip Events Conditions
12:08 AM 69.8 °F 69.8 °F 100% 30.22 in 10.0 mi East 13.8 mph - N/A   Mostly Cloudy
12:48 AM 69.8 °F 69.8 °F 100% 30.20 in 10.0 mi East 11.5 mph - N/A   Mostly Cloudy
12:58 AM 70.2 °F 69.4 °F 98% 30.22 in 10.0 mi East 12.7 mph - N/A   Mostly Cloudy
1:03 AM 69.8 °F 69.8 °F 100% 30.20 in 10.0 mi East 13.8 mph - N/A   Mostly Cloudy
1:18 AM 69.8 °F 69.8 °F 100% 30.19 in 8.0 mi East 16.1 mph - N/A   Mostly Cloudy
1:19 AM 69.8 °F 69.8 °F 100% 30.19 in 8.0 mi East 16.1 mph - N/A   Light Drizzle
1:29 AM 69.8 °F 69.8 °F 100% 30.20 in 3.0 mi East 11.5 mph - N/A   Light Drizzle
1:34 AM 69.8 °F 69.8 °F 100% 30.19 in 2.5 mi East 15.0 mph - N/A Rain Light Rain
1:39 AM 69.8 °F 69.8 °F 100% 30.19 in 4.0 mi East 12.7 mph - N/A Rain Light Rain
1:49 AM 69.8 °F 69.8 °F 100% 30.19 in 5.0 mi East 15.0 mph - N/A Rain Light Rain
1:57 AM 69.8 °F 69.8 °F 100% 30.19 in 7.0 mi East 10.4 mph - N/A   Mostly Cloudy
1:58 AM 69.8 °F 69.4 °F 99% 30.21 in 7.0 mi East 10.4 mph - 2.21 in   Mostly Cloudy
2:04 AM 69.8 °F 69.8 °F 100% 30.19 in 8.0 mi East 11.5 mph - N/A   Light Drizzle
2:14 AM 69.8 °F 69.8 °F 100% 30.18 in 10.0 mi East 12.7 mph - N/A Rain Light Rain
2:17 AM 69.8 °F 69.8 °F 100% 30.19 in 9.0 mi East 12.7 mph - N/A   Mostly Cloudy
2:24 AM 69.8 °F 69.8 °F 100% 30.19 in 4.0 mi ESE 12.7 mph - N/A   Drizzle
2:40 AM 69.8 °F 69.8 °F 100% 30.18 in 6.0 mi SE 8.1 mph - N/A Rain Light Rain
2:53 AM 68.0 °F 68.0 °F 100% 30.17 in 9.0 mi ESE 8.1 mph - N/A   Mostly Cloudy
2:58 AM 68.9 °F 68.7 °F 99% 30.19 in 8.0 mi ESE 6.9 mph - 1.26 in   Mostly Cloudy
3:03 AM 68.0 °F 68.0 °F 100% 30.16 in 7.0 mi ESE 5.8 mph - N/A   Scattered Clouds
3:34 AM 69.8 °F 69.8 °F 100% 30.16 in 5.0 mi ESE 4.6 mph - N/A Rain Light Rain
3:39 AM 69.8 °F 69.8 °F 100% 30.16 in 5.0 mi ESE 5.8 mph - N/A   Light Drizzle
3:44 AM 69.8 °F 69.8 °F 100% 30.16 in 5.0 mi ESE 5.8 mph - N/A   Light Drizzle
3:45 AM 69.8 °F 69.8 °F 100% 30.16 in 5.0 mi ESE 5.8 mph - N/A   Mostly Cloudy
3:58 AM 68.9 °F 68.9 °F 100% 30.17 in 6.0 mi ESE 4.6 mph - 10.49 in   Mostly Cloudy
4:26 AM 68.0 °F 68.0 °F 100% 30.16 in 8.0 mi East 5.8 mph - N/A   Light Drizzle
4:36 AM 68.0 °F 68.0 °F 100% 30.16 in 7.0 mi East 4.6 mph - N/A   Light Drizzle
4:38 AM 68.0 °F 68.0 °F 100% 30.16 in 6.0 mi East 5.8 mph - N/A   Mostly Cloudy
4:48 AM 68.0 °F 68.0 °F 100% 30.15 in 7.0 mi East 8.1 mph - N/A   Mostly Cloudy
4:58 AM 68.9 °F 68.9 °F 100% 30.17 in 10.0 mi East 10.4 mph - 0.00 in   Mostly Cloudy
5:08 AM 69.8 °F 69.8 °F 100% 30.15 in 5.0 mi ESE 8.1 mph - N/A   Mostly Cloudy
5:10 AM 69.8 °F 69.8 °F 100% 30.15 in 5.0 mi SE 5.8 mph - N/A   Light Drizzle
5:15 AM 69.8 °F 69.8 °F 100% 30.15 in 5.0 mi ESE 4.6 mph - N/A   Light Drizzle
5:20 AM 69.8 °F 69.8 °F 100% 30.15 in 5.0 mi ESE 8.1 mph - N/A   Light Drizzle
5:25 AM 69.8 °F 69.8 °F 100% 30.15 in 6.0 mi ESE 6.9 mph - N/A   Light Drizzle
5:30 AM 69.8 °F 69.8 °F 100% 30.15 in 10.0 mi SE 5.8 mph - N/A   Light Drizzle
5:32 AM 69.8 °F 69.8 °F 100% 30.15 in 10.0 mi SE 5.8 mph - N/A   Mostly Cloudy
5:37 AM 69.8 °F 69.8 °F 100% 30.16 in 10.0 mi ESE 5.8 mph - N/A   Mostly Cloudy
5:47 AM 68.0 °F 68.0 °F 100% 30.15 in 9.0 mi SE 5.8 mph - N/A   Scattered Clouds
5:58 AM 68.9 °F 68.9 °F 100% 30.17 in 7.0 mi ESE 4.6 mph - 0.00 in   Scattered Clouds
6:38 AM 69.8 °F 69.8 °F 100% 30.16 in 10.0 mi SSE 10.4 mph - N/A   Mostly Cloudy
6:58 AM 70.5 °F 69.3 °F 96% 30.17 in 10.0 mi SSE 8.1 mph - N/A   Mostly Cloudy
7:44 AM 69.8 °F 69.8 °F 100% 30.17 in 9.0 mi SE 12.7 mph - N/A   Light Drizzle
7:58 AM 69.6 °F 68.5 °F 96% 30.19 in 7.0 mi SSE 9.2 mph - 2.59 in   Light Drizzle
8:00 AM 69.8 °F 68.0 °F 94% 30.18 in 9.0 mi SSE 10.4 mph - N/A   Partly Cloudy
8:58 AM 70.3 °F 69.4 °F 97% 30.21 in 4.0 mi SSE 11.5 mph - -   Partly Cloudy
9:25 AM 69.8 °F 69.8 °F 100% 30.20 in 8.0 mi South 8.1 mph - N/A   Light Drizzle
9:36 AM 69.8 °F 69.8 °F 100% 30.20 in 10.0 mi South 4.6 mph - N/A   Partly Cloudy
9:58 AM 71.6 °F 70.3 °F 96% 30.22 in 10.0 mi South 4.6 mph - 0.88 in   Partly Cloudy
10:58 AM 71.2 °F 70.3 °F 97% 30.19 in 9.0 mi SSE 8.1 mph - N/A   Scattered Clouds
11:04 AM 71.6 °F 69.8 °F 94% 30.18 in 8.0 mi South 9.2 mph - N/A   Light Drizzle
11:15 AM 71.6 °F 71.6 °F 100% 30.18 in 6.0 mi SSE 9.2 mph - N/A   Clear
11:58 AM 73.0 °F 70.7 °F 92% 30.17 in 9.0 mi SSE 10.4 mph - 0.00 in   Clear
12:58 PM 73.2 °F 70.3 °F 91% 30.14 in 6.0 mi SE 5.8 mph - N/A   Clear
1:58 PM 73.8 °F 69.4 °F 86% 30.11 in 10.0 mi SSE 10.4 mph - N/A   Partly Cloudy
2:58 PM 73.6 °F 69.3 °F 86% 30.11 in 10.0 mi SSE 11.5 mph - N/A   Clear
3:58 PM 72.7 °F 68.5 °F 87% 30.11 in 10.0 mi SSE 9.2 mph - N/A   Clear
4:58 PM 71.2 °F 68.7 °F 92% 30.11 in 7.0 mi SE 5.8 mph - N/A   Clear
5:58 PM 71.6 °F 69.8 °F 94% 30.11 in 5.0 mi SSE 8.1 mph - N/A   Scattered Clouds
6:28 PM 71.6 °F 69.8 °F 94% 30.10 in 5.0 mi SE 5.8 mph - N/A   Scattered Clouds
6:53 PM 69.8 °F 69.8 °F 100% 30.10 in 4.0 mi SE 5.8 mph - N/A   Partly Cloudy
6:58 PM 69.4 °F 69.1 °F 99% 30.12 in 4.0 mi SE 5.8 mph - N/A   Clear
7:03 PM 69.8 °F 69.8 °F 100% 30.10 in 4.0 mi SSE 6.9 mph - N/A   Partly Cloudy
7:12 PM 69.8 °F 69.8 °F 100% 30.10 in 6.0 mi South 4.6 mph - N/A   Light Drizzle
7:17 PM 69.8 °F 69.8 °F 100% 30.11 in 9.0 mi SSE 5.8 mph - N/A   Light Drizzle
7:22 PM 69.8 °F 69.8 °F 100% 30.11 in 8.0 mi SSE 4.6 mph - N/A   Scattered Clouds
7:47 PM 69.8 °F 69.8 °F 100% 30.12 in 4.0 mi SSE 4.6 mph - N/A   Partly Cloudy
7:52 PM 69.8 °F 69.8 °F 100% 30.12 in 3.0 mi South 5.8 mph - N/A   Partly Cloudy
7:58 PM 70.5 °F 70.2 °F 99% 30.14 in 4.0 mi SSE 5.8 mph - 0.00 in   Partly Cloudy
8:08 PM 69.8 °F 69.8 °F 100% 30.12 in 2.5 mi SSE 4.6 mph - N/A   Partly Cloudy
8:28 PM 69.8 °F 69.8 °F 100% 30.13 in 3.0 mi SSE 5.8 mph - N/A   Partly Cloudy
8:33 PM 69.8 °F 69.8 °F 100% 30.13 in 3.0 mi SE 5.8 mph - N/A   Scattered Clouds
8:43 PM 69.8 °F 69.8 °F 100% 30.13 in 3.0 mi SE 6.9 mph - N/A   Mostly Cloudy
8:48 PM 69.8 °F 69.8 °F 100% 30.13 in 3.0 mi SE 6.9 mph - N/A   Mostly Cloudy
8:58 PM 69.4 °F 69.1 °F 99% 30.14 in 4.0 mi SSE 6.9 mph - N/A   Overcast
9:38 PM 68.0 °F 68.0 °F 100% 30.13 in 5.0 mi SSE 6.9 mph - N/A   Overcast
9:48 PM 69.8 °F 68.0 °F 94% 30.13 in 5.0 mi SSE 6.9 mph - N/A   Overcast
9:53 PM 69.8 °F 68.0 °F 94% 30.13 in 5.0 mi SSE 6.9 mph - N/A   Overcast
9:58 PM 69.3 °F 68.4 °F 97% 30.14 in 4.0 mi SE 8.1 mph - N/A   Overcast
10:23 PM 68.0 °F 68.0 °F 100% 30.12 in 5.0 mi SSE 8.1 mph - N/A   Mostly Cloudy
10:28 PM 68.0 °F 68.0 °F 100% 30.12 in 5.0 mi SSE 8.1 mph - N/A   Scattered Clouds
10:48 PM 68.0 °F 68.0 °F 100% 30.12 in 5.0 mi SSE 8.1 mph - N/A   Clear
10:53 PM 68.0 °F 68.0 °F 100% 30.11 in 5.0 mi SSE 6.9 mph - N/A   Clear
10:58 PM 68.0 °F 67.6 °F 99% 30.12 in 4.0 mi SSE 8.1 mph - N/A   Clear
11:08 PM 68.0 °F 68.0 °F 100% 30.11 in 6.0 mi SSE 8.1 mph - N/A   Clear
11:43 PM 69.8 °F 69.8 °F 100% 30.11 in 10.0 mi SSE 8.1 mph - N/A   Clear
11:58 PM 70.5 °F 69.6 °F 97% 30.12 in 9.0 mi SSE 8.1 mph - N/A   Clear